#timestamp,LO_Frequency,Hit,StdDev 
1626584415.0,286047002.8,N
1626584415.9,286047002.8,N
1626584435.7,286047000.2,N
1626584455.6,286047002.2,N
1626584475.4,286047002.5,N
1626584495.3,286047002.6,N
1626584515.1,286047002.1,N
1626584516.0,286047002.1,N
1626584535.8,286047000.4,N
1626584555.7,286047000.2,N
1626584575.5,286047000.6,N
1626584595.3,286047000.0,N
1626584615.2,286047000.5,N
1626584635.0,286047002.4,N
1626584635.9,286047002.4,N
1626584655.8,286047000.1,N
1626584675.6,286047000.3,N
1626584695.4,286046999.9,N
1626584715.3,286047000.7,N
1626584735.1,286047001.0,N
1626584755.8,286047000.7,N
1626584775.7,286047000.7,N
1626584795.5,286047001.2,N
1626584815.4,286047001.1,N
1626584835.2,286047000.7,N
1626584855.0,286047001.2,N
1626584855.9,286047001.2,N
1626584875.8,286047000.8,N
1626584895.6,286047001.0,N
1626584915.4,286046998.1,N
1626584935.3,286046998.6,N
1626584955.1,286046998.3,N
1626584975.9,286046996.5,Y
1626584995.7,286046999.4,P
1626585015.5,286046996.5,P
1626585035.4,286046998.8,N
1626585055.2,286046997.3,N
1626585075.0,286046996.9,N
1626585075.9,286046996.9,N
1626585095.8,286046997.8,N
1626585115.6,286046999.6,N
1626585135.5,286046999.1,N
1626585155.3,286046998.9,N
1626585175.1,286046996.7,N
1626585195.9,286046999.4,N
1626585215.7,286046996.5,N
1626585235.6,286046999.5,N
1626585255.4,286046999.5,N
1626585275.2,286046996.8,N
1626585295.1,286046999.6,N
1626585296.0,286046999.6,N
1626585315.8,286046997.6,N
1626585335.6,286046997.3,N
1626585355.5,286046997.0,N
1626585375.3,286046997.3,N
1626585395.2,286046999.2,N
1626585415.9,286046998.8,N
1626585435.7,286046998.4,N
1626585455.6,286046998.3,N
1626585475.4,286047000.7,N
1626585495.2,286047000.6,N
1626585515.1,286046996.6,N
1626585516.0,286046996.6,N
1626585535.8,286046998.5,N
1626585555.7,286047001.1,N
1626585575.5,286047000.4,N
1626585595.3,286047000.0,N
1626585615.2,286047000.1,N
1626585635.0,286046999.8,N
1626585635.9,286046999.8,N
1626585655.7,286047001.1,N
1626585675.6,286046998.7,N
1626585695.4,286046997.8,N
1626585715.3,286046997.1,N
1626585735.1,286046997.7,N
1626585736.0,286046997.7,N
1626585755.8,286046997.2,N
1626585775.7,286046998.6,N
1626585795.5,286046996.6,N
1626585815.3,286046997.1,N
1626585835.2,286046997.2,N
1626585855.0,286046996.5,N
1626585855.9,286046996.5,N
1626585875.8,286046997.7,N
1626585895.6,286046997.0,N
1626585915.4,286046997.8,N
1626585935.3,286046997.7,N
1626585955.1,286046997.7,N
1626585975.9,286046997.7,N
1626585995.7,286046997.8,N
1626586015.5,286046997.2,N
1626586035.4,286046997.2,N
1626586055.2,286046997.4,N
1626586075.0,286046996.9,N
1626586075.9,286046996.9,N
1626586095.8,286046996.7,N
1626586115.6,286046997.8,N
1626586135.5,286046997.6,N
1626586155.3,286046997.4,N
1626586175.1,286046997.5,N
1626586195.9,286046997.6,N
1626586215.7,286046995.4,Y
1626586235.5,286046997.0,P
1626586255.4,286046999.6,N
1626586275.2,286046998.9,N
1626586295.1,286046997.7,N
1626586296.0,286046997.7,N
1626586315.8,286046997.0,Y
1626586335.6,286046998.1,P
1626586355.5,286047000.7,P
1626586375.3,286047002.4,N
1626586395.1,286047002.5,N
1626586415.9,286047001.7,N
1626586435.7,286047003.7,N
1626586455.6,286047001.3,N
1626586475.4,286047003.5,N
1626586495.2,286047006.0,Y
1626586515.1,286047001.9,P
1626586516.0,286047001.9,P
1626586535.8,286046999.7,N
1626586555.7,286047001.6,N
1626586575.5,286047004.4,Y
1626586595.3,286047001.8,P
1626586615.2,286047001.7,P
1626586635.9,286047004.4,P
1626586655.7,286047001.8,N
1626586675.6,286047001.6,N
1626586695.4,286047002.1,N
1626586715.3,286047004.3,Y
1626586735.1,286047000.4,P
1626586736.0,286047000.4,N
1626586755.8,286047000.3,N
1626586775.7,286046999.9,N
1626586795.5,286047000.4,N
1626586815.4,286047001.0,N
1626586835.2,286046998.1,N
1626586855.0,286046999.4,N
1626586855.9,286046999.4,N
1626586875.8,286046999.5,N
1626586895.6,286046996.5,Y
1626586915.4,286046999.6,P
1626586935.3,286046998.7,P
1626586955.1,286046998.7,N
1626586975.9,286046998.7,N
1626586995.7,286046998.3,N
1626587015.5,286046998.8,N
1626587035.4,286046996.9,Y
1626587055.2,286047001.0,P
1626587075.0,286046998.5,N
1626587075.9,286046998.5,N
1626587095.8,286046996.6,Y
1626587115.6,286047001.2,P
1626587135.5,286046998.5,N
1626587155.3,286047001.1,N
1626587175.1,286046999.5,N
1626587195.9,286046998.7,N
1626587215.7,286047000.8,N
1626587235.5,286047000.4,N
1626587255.4,286047000.4,N
1626587275.2,286047000.3,N
1626587295.1,286047000.6,N
1626587296.0,286047000.6,N
1626587315.8,286047000.1,N
1626587335.7,286047000.6,N
1626587355.5,286047000.5,N
1626587375.3,286046999.7,N
1626587395.2,286046999.9,N
1626587415.0,286047000.0,N
1626587415.9,286047000.0,N
1626587435.7,286047000.5,N
1626587455.6,286047000.0,N
1626587475.4,286047000.4,N
1626587495.3,286047000.9,N
1626587515.1,286047000.6,N
1626587516.0,286047000.6,N
1626587535.8,286047001.0,N
1626587555.7,286047000.0,N
1626587575.5,286047000.3,N
1626587595.3,286047000.3,N
1626587615.2,286047001.0,N
1626587635.0,286047000.7,N
1626587635.9,286047000.7,N
1626587655.8,286047001.2,N
1626587675.6,286047001.2,N
1626587695.4,286046998.3,Y
1626587715.3,286047000.7,P
1626587735.1,286046998.3,P
1626587755.9,286047000.8,N
1626587775.7,286047000.3,N
1626587795.5,286047000.8,N
1626587815.4,286046998.2,N
1626587835.2,286046998.7,N
1626587855.1,286047000.7,N
1626587856.0,286047000.7,N
1626587875.8,286046999.3,N
1626587895.6,286046998.8,N
1626587915.5,286046998.4,N
1626587935.3,286046999.0,N
1626587955.1,286046999.2,N
1626587975.9,286046999.0,N
1626587995.7,286046999.4,N
